When you browse on this site, cookies collect data to enhance your experience and personalize the content and advertising you see.
Visit our Privacy Policy to learn more. By continuing to use the site, you agree to this use of cookies and data.
  • In Romania
  • List of Countries
  • For 7 days
  • Water Temperature
  • Weather Map
  • Weather Widgets
  • user-avatar
    Login

    Hourly Weather Semnan

    Today, 24 August, Saturday

    Time Temperature Precipitation Wind Pressure Humidity
    00:00 +28°C° 0 mm 2 mps 680 mmHg 22%
    01:00 +27°C° 0 mm 2 mps 680 mmHg 23%
    02:00 +27°C° 0 mm 3 mps 680 mmHg 23%
    03:00 +27°C° 0 mm 3 mps 680 mmHg 23%
    04:00 +26°C° 0 mm 3 mps 680 mmHg 24%
    05:00 +27°C° 0 mm 3 mps 680 mmHg 23%
    06:00 +27°C° 0 mm 3 mps 681 mmHg 22%
    07:00 +28°C° 0 mm 3 mps 681 mmHg 21%
    08:00 +30°C° 0 mm 3 mps 682 mmHg 18%
    09:00 +31°C° 0 mm 3 mps 682 mmHg 16%
    10:00 +34°C° 0 mm 3 mps 683 mmHg 14%
    11:00 +35°C° 0 mm 3 mps 682 mmHg 13%
    12:00 +36°C° 0 mm 2 mps 682 mmHg 12%
    13:00 +37°C° 0 mm 2 mps 681 mmHg 11%
    14:00 +38°C° 0 mm 2 mps 681 mmHg 11%
    15:00 +38°C° 0 mm 2 mps 681 mmHg 10%
    16:00 +39°C° 0 mm 2 mps 681 mmHg 10%
    17:00 +37°C° 0 mm 2 mps 680 mmHg 11%
    18:00 +34°C° 0 mm 1 mps 680 mmHg 13%
    19:00 +32°C° 0 mm 1 mps 679 mmHg 14%
    20:00 +31°C° 0 mm 2 mps 679 mmHg 17%
    21:00 +30°C° 0 mm 2 mps 679 mmHg 20%
    22:00 +28°C° 0 mm 2 mps 679 mmHg 24%
    23:00 +28°C° 0 mm 2 mps 679 mmHg 25%

    Tomorrow, 25 August, Sunday

    Time Temperature Precipitation Wind Pressure Humidity
    00:00 +27°C° 0 mm 2 mps 678 mmHg 26%
    01:00 +27°C° 0 mm 2 mps 678 mmHg 27%
    02:00 +26°C° 0 mm 2 mps 678 mmHg 26%
    03:00 +26°C° 0 mm 2 mps 678 mmHg 25%
    04:00 +25°C° 0 mm 2 mps 678 mmHg 24%
    05:00 +26°C° 0 mm 2 mps 678 mmHg 21%
    06:00 +26°C° 0 mm 2 mps 679 mmHg 18%
    07:00 +27°C° 0 mm 2 mps 679 mmHg 16%
    08:00 +29°C° 0 mm 2 mps 680 mmHg 14%
    09:00 +31°C° 0 mm 2 mps 680 mmHg 13%
    10:00 +34°C° 0 mm 2 mps 681 mmHg 11%
    11:00 +35°C° 0 mm 2 mps 680 mmHg 10%
    12:00 +37°C° 0 mm 2 mps 680 mmHg 10%
    13:00 +38°C° 0 mm 2 mps 680 mmHg 9%
    14:00 +38°C° 0 mm 2 mps 680 mmHg 9%
    15:00 +39°C° 0 mm 2 mps 680 mmHg 8%
    16:00 +39°C° 0 mm 2 mps 680 mmHg 8%
    17:00 +37°C° 0 mm 2 mps 679 mmHg 9%
    18:00 +34°C° 0 mm 1 mps 679 mmHg 10%
    19:00 +32°C° 0 mm 1 mps 678 mmHg 12%
    20:00 +31°C° 0 mm 2 mps 678 mmHg 15%
    21:00 +30°C° 0 mm 2 mps 678 mmHg 18%
    22:00 +29°C° 0 mm 3 mps 678 mmHg 21%
    23:00 +28°C° 0 mm 2 mps 678 mmHg 21%

    Day after tomorrow, 26 August, Monday

    Time Temperature Precipitation Wind Pressure Humidity
    00:00 +27°C° 0 mm 2 mps 678 mmHg 21%
    01:00 +26°C° 0 mm 2 mps 678 mmHg 20%
    02:00 +26°C° 0 mm 2 mps 678 mmHg 20%
    03:00 +25°C° 0 mm 1 mps 678 mmHg 19%
    04:00 +24°C° 0 mm 1 mps 678 mmHg 19%
    05:00 +25°C° 0 mm 1 mps 679 mmHg 18%
    06:00 +26°C° 0 mm 1 mps 679 mmHg 17%
    07:00 +27°C° 0 mm 1 mps 680 mmHg 16%
    08:00 +29°C° 0 mm 1 mps 680 mmHg 14%
    09:00 +31°C° 0 mm 1 mps 681 mmHg 12%
    10:00 +35°C° 0 mm 2 mps 681 mmHg 11%
    11:00 +36°C° 0 mm 2 mps 681 mmHg 10%
    12:00 +37°C° 0 mm 2 mps 681 mmHg 9%
    13:00 +38°C° 0 mm 2 mps 681 mmHg 9%
    14:00 +39°C° 0 mm 2 mps 681 mmHg 9%
    15:00 +39°C° 0 mm 1 mps 681 mmHg 8%
    16:00 +39°C° 0 mm 1 mps 681 mmHg 8%
    17:00 +36°C° 0 mm 1 mps 680 mmHg 10%
    18:00 +34°C° 0 mm 1 mps 680 mmHg 12%
    19:00 +32°C° 0 mm 2 mps 680 mmHg 13%
    20:00 +31°C° 0 mm 2 mps 680 mmHg 16%
    21:00 +30°C° 0 mm 2 mps 680 mmHg 19%
    22:00 +29°C° 0 mm 3 mps 680 mmHg 22%
    23:00 +28°C° 0 mm 3 mps 680 mmHg 23%

    27 August, Tuesday

    Time Temperature Precipitation Wind Pressure Humidity
    00:00 +27°C° 0 mm 2 mps 680 mmHg 23%
    01:00 +26°C° 0 mm 2 mps 680 mmHg 24%
    02:00 +25°C° 0 mm 1 mps 680 mmHg 25%
    03:00 +24°C° 0 mm 1 mps 680 mmHg 26%
    04:00 +23°C° 0 mm 1 mps 680 mmHg 27%
    05:00 +24°C° 0 mm 1 mps 681 mmHg 26%
    06:00 +22°C° 0 mm 0 mps 681 mmHg 25%
    07:00 +23°C° 0 mm 0 mps 682 mmHg 23%
    08:00 +27°C° 0 mm 1 mps 682 mmHg 20%
    09:00 +30°C° 0 mm 1 mps 683 mmHg 17%
    10:00 +32°C° 0 mm 2 mps 683 mmHg 14%
    11:00 +34°C° 0 mm 2 mps 683 mmHg 13%
    12:00 +35°C° 0 mm 2 mps 682 mmHg 11%
    13:00 +37°C° 0 mm 2 mps 682 mmHg 10%
    14:00 +37°C° 0 mm 2 mps 682 mmHg 9%
    15:00 +38°C° 0 mm 2 mps 681 mmHg 9%
    16:00 +38°C° 0 mm 2 mps 681 mmHg 8%
    17:00 +36°C° 0 mm 2 mps 680 mmHg 10%
    18:00 +34°C° 0 mm 2 mps 680 mmHg 11%
    19:00 +31°C° 0 mm 2 mps 679 mmHg 12%
    20:00 +30°C° 0 mm 2 mps 679 mmHg 14%
    21:00 +29°C° 0 mm 2 mps 679 mmHg 15%
    22:00 +28°C° 0 mm 2 mps 679 mmHg 16%
    23:00 +27°C° 0 mm 2 mps 679 mmHg 17%

    28 August, Wednesday

    Time Temperature Precipitation Wind Pressure Humidity
    00:00 +27°C° 0 mm 2 mps 678 mmHg 18%
    01:00 +26°C° 0 mm 1 mps 678 mmHg 18%
    02:00 +26°C° 0 mm 1 mps 678 mmHg 19%
    03:00 +25°C° 0 mm 1 mps 678 mmHg 20%
    04:00 +25°C° 0 mm 1 mps 678 mmHg 21%
    05:00 +25°C° 0 mm 1 mps 678 mmHg 20%
    06:00 +26°C° 0 mm 1 mps 679 mmHg 20%
    07:00 +26°C° 0 mm 1 mps 679 mmHg 19%
    08:00 +29°C° 0 mm 1 mps 679 mmHg 17%
    09:00 +31°C° 0 mm 2 mps 680 mmHg 14%
    10:00 +35°C° 0 mm 2 mps 680 mmHg 12%
    11:00 +36°C° 0 mm 2 mps 680 mmHg 11%
    12:00 +37°C° 0 mm 2 mps 680 mmHg 10%
    13:00 +39°C° 0 mm 3 mps 680 mmHg 9%
    14:00 +39°C° 0 mm 3 mps 679 mmHg 9%
    15:00 +40°C° 0 mm 3 mps 679 mmHg 8%
    16:00 +42°C° 0 mm 3 mps 679 mmHg 8%
    17:00 +38°C° 0 mm 2 mps 678 mmHg 10%
    18:00 +35°C° 0 mm 2 mps 678 mmHg 12%
    19:00 +32°C° 0 mm 1 mps 677 mmHg 14%
    20:00 +31°C° 0 mm 1 mps 677 mmHg 16%
    21:00 +30°C° 0 mm 2 mps 678 mmHg 17%
    22:00 +29°C° 0 mm 2 mps 678 mmHg 19%
    23:00 +29°C° 0 mm 2 mps 678 mmHg 20%

    29 August, Thursday

    Time Temperature Precipitation Wind Pressure Humidity
    00:00 +28°C° 0 mm 2 mps 678 mmHg 21%
    01:00 +27°C° 0 mm 1 mps 678 mmHg 23%
    02:00 +27°C° 0 mm 1 mps 678 mmHg 24%
    03:00 +27°C° 0 mm 2 mps 678 mmHg 25%
    04:00 +26°C° 0 mm 2 mps 678 mmHg 27%
    05:00 +27°C° 0 mm 2 mps 679 mmHg 26%
    06:00 +28°C° 0 mm 2 mps 679 mmHg 25%
    07:00 +29°C° 0 mm 2 mps 680 mmHg 23%
    08:00 +31°C° 0 mm 2 mps 680 mmHg 20%
    09:00 +35°C° 0 mm 2 mps 681 mmHg 16%
    10:00 +37°C° 0 mm 3 mps 681 mmHg 13%
    11:00 +38°C° 0 mm 3 mps 681 mmHg 11%
    12:00 +39°C° 0 mm 3 mps 681 mmHg 10%
    13:00 +42°C° 0 mm 3 mps 681 mmHg 9%
    14:00 +42°C° 0 mm 3 mps 680 mmHg 8%
    15:00 +43°C° 0 mm 3 mps 680 mmHg 8%
    16:00 +43°C° 0 mm 3 mps 680 mmHg 7%
    17:00 +39°C° 0 mm 2 mps 679 mmHg 9%
    18:00 +36°C° 0 mm 2 mps 678 mmHg 10%
    19:00 +33°C° 0 mm 1 mps 678 mmHg 12%
    20:00 +32°C° 0 mm 2 mps 678 mmHg 14%
    21:00 +33°C° 0 mm 3 mps 678 mmHg 16%
    22:00 +31°C° 0 mm 3 mps 678 mmHg 18%
    23:00 +30°C° 0 mm 3 mps 678 mmHg 21%
    Show more